Wind_Speed
36 35 35 34 32 32 33 32 33 31 31 29 29 29 29 29 28 27 27 27 26 26 26 26 26 27 28 29 30 31 31 32 32 33 33 33 34 34 35 36 37 38 38 39
37 35 36 35 33 33 33 33 33 33 31 30 31 31 30 30 29 29 28 28 28 27 27 27 27 27 27 28 29 30 31 32 33 34 34 35 35 35 36 37 38 39 40 41
38 37 38 37 34 35 35 35 34 34 32 31 32 31 31 30 30 29 29 28 28 28 28 28 28 28 28 28 28 29 30 31 31 32 33 34 36 37 38 39 40 40 40 41
39 39 39 35 34 35 35 35 35 34 33 32 32 31 31 31 30 30 29 29 29 28 28 28 28 29 29 29 29 29 30 30 31 32 33 34 36 37 38 38 39 40 40 40
39 40 39 36 35 34 34 34 34 35 34 33 33 33 32 32 31 30 30 29 29 30 29 29 29 30 30 31 31 31 31 31 32 33 33 34 35 36 37 38 39 39 40 40
37 37 37 36 36 36 36 35 35 35 35 34 34 34 33 32 32 31 31 31 31 31 31 31 31 31 32 32 32 32 32 33 33 34 35 35 36 37 37 38 39 40 40 40
36 36 36 35 35 35 36 35 34 35 35 35 35 35 34 34 33 33 33 32 32 32 32 33 33 33 33 33 33 34 34 34 35 35 35 36 37 37 38 39 39 40 40 41
36 37 36 35 35 35 36 35 35 35 36 36 35 35 34 34 34 33 33 33 33 33 33 33 33 33 34 34 34 34 35 35 35 36 36 37 38 38 39 39 40 40 41 41
36 36 36 35 36 36 37 37 37 36 36 36 36 35 35 35 34 34 34 34 34 34 34 33 33 34 34 34 34 35 36 36 37 37 38 38 39 39 39 40 40 41 42 43
34 35 35 36 36 36 37 38 37 36 36 36 36 35 35 35 34 34 35 35 35 35 34 34 34 34 35 35 35 36 37 38 38 39 40 40 40 40 41 41 41 42 43 44
35 34 34 35 36 37 37 37 37 37 37 36 36 36 35 35 35 35 35 35 35 35 35 35 35 36 36 36 37 37 38 39 40 40 41 42 41 41 41 42 42 43 43 44
34 34 34 34 34 35 35 35 36 36 36 36 36 35 36 36 36 36 36 36 36 36 36 36 36 37 37 37 38 38 39 39 40 40 41 41 41 41 41 41 42 43 44 44
33 33 33 33 34 35 35 36 35 34 34 34 35 35 35 36 36 36 36 36 36 36 36 36 36 36 37 37 37 38 38 39 39 39 39 39 39 40 40 41 42 43 44 44
29 29 30 31 33 34 35 35 35 34 34 34 34 34 34 34 35 36 36 36 36 36 36 37 37 37 37 37 37 37 37 37 37 38 38 38 38 39 40 40 41 42 42 43
28 29 30 30 31 32 33 34 34 34 34 34 35 35 35 35 35 36 36 36 36 37 37 37 37 37 37 37 36 36 37 37 37 38 38 39 39 40 40 40 41 41 41 42
28 29 30 31 31 32 32 33 34 34 34 35 36 36 36 37 37 36 36 36 36 37 37 37 37 36 37 37 37 37 37 37 38 38 38 39 39 39 39 39 40 40 41 42
27 27 28 28 28 29 30 31 32 33 34 34 34 35 35 35 35 36 37 37 37 37 37 37 36 36 36 36 36 36 37 37 37 37 37 37 38 38 38 39 40 40 40 41
26 26 27 27 27 28 28 29 30 31 32 32 32 33 34 34 35 36 36 36 36 36 36 36 36 36 36 37 37 37 37 37 37 37 37 37 37 37 38 39 39 39 39 39
24 25 25 25 26 26 27 27 28 29 30 31 32 32 33 34 34 35 35 35 35 35 35 36 36 36 36 37 37 37 37 36 36 37 37 37 37 37 37 38 38 38 37 36
23 24 24 24 25 26 26 26 27 28 29 30 30 31 32 32 33 33 34 34 35 35 35 35 35 35 36 37 36 36 36 36 36 36 36 36 36 36 36 36 36 35 35 34
23 24 24 24 25 26 26 26 26 27 27 27 28 28 29 30 30 31 31 32 32 33 33 34 35 35 36 36 35 35 35 35 34 34 35 35 35 34 34 34 34 34 34 34
23 23 23 23 24 24 24 25 25 26 26 26 26 27 27 28 29 29 30 30 31 31 32 33 34 34 34 34 34 34 34 34 34 33 33 33 33 32 32 32 32 32 32 32
22 22 22 22 23 23 24 24 25 26 26 26 27 27 28 29 29 30 30 31 31 32 32 33 33 33 32 32 32 31 31 31 31 31 31 31 31 30 30 29 29 29 30 30
21 21 21 22 23 24 25 26 26 26 27 27 27 28 28 28 29 30 30 30 30 31 31 32 32 32 31 31 30 30 29 29 29 28 28 28 28 28 28 28 28 28 28 28
21 22 22 23 24 24 25 25 26 27 28 28 29 29 29 29 29 29 30 30 30 30 31 31 31 30 30 30 30 30 29 29 28 28 28 28 27 27 27 27 27 26 26 26
22 22 23 24 24 25 25 26 27 27 28 28 29 29 28 28 28 28 28 29 29 29 29 29 29 29 29 29 28 28 28 28 28 28 27 27 27 26 26 26 25 25 24 23
23 23 24 24 25 25 26 26 27 27 27 27 27 28 27 27 27 27 27 28 28 28 28 28 28 28 28 28 27 27 27 27 26 26 25 25 25 24 24 23 23 22 21 20
Wind_Direction
269 270 270 271 270 270 272 274 276 277 277 280 281 281 281 282 282 283 282 280 277 274 271 269 267 266 265 264 262 262 262 263 263 263 262 261 262 263 262 262 263 262 263 262
267 269 269 268 268 269 271 273 275 276 276 277 279 278 278 280 281 281 279 279 278 275 272 270 268 267 266 265 264 263 262 263 263 263 262 262 262 263 263 263 263 263 264 264
267 267 267 267 269 269 270 271 273 274 274 275 276 277 277 278 279 280 278 277 276 275 272 269 268 268 267 266 266 265 264 264 263 263 264 264 264 265 266 266 264 264 266 266
267 266 266 270 270 269 270 270 270 271 271 272 274 275 275 276 278 278 278 276 274 273 272 269 267 266 266 266 267 267 265 264 264 264 264 266 265 266 266 267 267 267 268 269
266 267 267 269 270 271 272 271 270 270 270 271 271 272 273 275 276 277 277 277 275 272 271 270 269 267 267 267 267 267 267 267 267 267 267 267 267 267 267 269 269 269 270 270
266 268 270 272 271 271 272 272 272 270 269 270 271 270 271 272 274 275 276 276 276 275 273 272 271 270 269 269 269 269 269 269 270 270 270 269 269 269 269 270 270 271 271 270
266 267 268 271 273 272 273 273 272 270 269 270 270 269 269 269 271 273 275 276 276 276 275 275 274 272 271 270 269 269 270 270 271 271 271 271 270 270 270 270 270 271 271 271
266 266 268 269 270 270 272 273 272 271 270 270 271 270 270 270 270 271 273 274 274 274 274 274 275 274 273 272 271 271 271 272 272 272 272 272 271 270 270 271 271 271 270 271
265 265 266 267 269 270 271 272 273 272 271 271 271 270 270 271 272 272 274 274 274 273 274 274 275 275 275 275 274 273 273 273 273 272 273 273 272 272 272 272 272 272 272 272
265 265 266 267 269 270 271 271 272 272 272 271 271 271 271 272 272 273 273 274 275 276 276 277 277 277 278 277 276 276 275 275 274 274 275 275 275 274 273 273 273 273 273 274
265 265 265 266 267 268 270 269 269 269 270 271 271 272 272 272 273 273 273 274 274 276 277 277 277 278 278 278 277 277 277 278 277 277 277 276 275 274 274 274 274 274 274 274
265 264 264 265 267 267 266 267 267 266 267 268 270 271 272 273 273 273 273 273 275 275 276 277 278 278 278 278 279 279 279 279 279 278 278 276 275 274 274 274 275 276 276 276
264 264 263 264 267 268 267 266 266 266 267 268 268 269 270 271 273 273 273 273 274 275 276 278 278 279 279 279 279 279 279 279 279 278 278 277 276 275 275 276 277 277 277 276
261 262 264 266 269 269 268 267 268 268 269 269 269 269 270 270 271 272 272 273 273 274 276 278 279 279 279 278 278 279 279 279 279 278 277 277 276 276 276 277 278 278 278 278
261 264 267 269 271 271 271 269 270 271 272 273 273 272 271 271 272 272 273 273 273 274 275 277 278 279 279 279 279 280 280 279 278 278 277 277 277 277 278 278 279 279 278 278
266 268 271 273 274 275 274 272 272 273 274 275 274 273 273 273 274 274 274 275 274 274 275 277 278 279 279 279 280 281 281 280 279 278 278 278 278 279 279 279 280 280 280 279
270 272 274 276 276 277 276 275 275 275 276 277 276 275 274 274 275 275 275 275 276 276 277 278 279 280 280 281 282 282 282 281 280 279 279 279 279 279 280 280 281 282 282 281
272 275 276 277 277 277 278 278 278 277 277 278 278 277 276 276 276 276 277 277 277 278 278 279 280 281 281 282 282 282 282 281 281 281 280 281 281 281 281 282 283 283 283 282
275 276 277 278 277 278 279 280 281 280 279 279 279 280 279 278 277 277 278 278 278 279 279 280 280 281 282 282 283 282 282 282 282 281 282 282 281 282 282 283 283 283 282 282
277 278 279 279 280 281 281 282 282 282 282 282 282 281 281 279 278 278 278 279 279 279 279 280 281 283 284 284 283 282 282 282 282 282 282 282 282 283 283 283 283 282 282 281
279 279 280 281 282 283 283 284 285 285 285 285 284 283 283 281 280 280 279 280 280 280 280 281 282 284 285 285 284 283 283 283 282 281 282 282 283 283 283 283 282 282 281 281
280 280 281 282 283 284 285 285 286 286 287 287 286 284 284 283 283 282 282 282 281 282 283 283 283 284 285 284 284 283 283 283 282 282 282 282 283 283 283 283 282 282 282 281
282 282 282 283 284 285 286 286 287 288 289 289 289 288 287 286 286 284 284 284 284 284 285 285 286 286 285 285 285 284 284 283 282 281 282 282 282 282 282 282 283 283 283 282
284 284 284 285 286 286 287 287 287 289 290 291 291 291 291 290 288 287 287 286 286 286 286 286 286 286 285 284 284 283 283 282 282 281 282 283 283 282 281 282 283 284 283 282
285 285 286 287 288 288 289 289 289 290 290 291 292 292 292 292 291 290 289 288 287 287 288 288 287 286 285 284 283 282 281 280 280 280 281 281 282 282 282 283 283 284 284 283
287 287 288 288 288 289 290 291 291 292 292 293 293 294 294 293 292 292 291 290 289 288 288 287 287 286 285 285 284 282 281 280 280 280 279 280 281 281 282 283 284 285 285 284
289 289 289 289 289 290 291 291 292 293 294 295 295 295 294 294 293 294 294 293 291 289 288 287 287 286 285 284 284 283 282 281 280 279 279 280 280 280 281 282 283 284 283 282
Height
5637 5638 5638 5638 5639 5638 5637 5637 5636 5637 5636 5637 5635 5633 5632 5630 5629 5628 5627 5626 5624 5623 5622 5622 5621 5621 5621 5621 5621 5620 5620 5620 5621 5621 5621 5621 5622 5623 5624 5625 5625 5626 5627 5628
5626 5627 5626 5627 5628 5628 5628 5627 5626 5626 5627 5628 5626 5624 5623 5622 5621 5620 5619 5618 5616 5615 5614 5614 5613 5613 5613 5613 5612 5612 5612 5612 5612 5612 5612 5612 5613 5613 5614 5614 5615 5616 5616 5617
5615 5616 5615 5616 5619 5619 5618 5617 5617 5616 5618 5617 5616 5615 5614 5613 5612 5611 5610 5609 5608 5607 5606 5605 5605 5604 5604 5604 5604 5603 5603 5603 5603 5603 5603 5603 5603 5603 5603 5603 5604 5604 5605 5605
5603 5605 5604 5609 5608 5607 5606 5607 5606 5606 5606 5606 5606 5605 5604 5604 5603 5602 5601 5600 5599 5598 5598 5597 5596 5596 5596 5595 5595 5595 5594 5594 5594 5594 5594 5594 5594 5593 5593 5592 5592 5593 5593 5592
5592 5592 5593 5597 5596 5596 5595 5596 5596 5596 5596 5596 5596 5595 5595 5594 5593 5593 5592 5591 5591 5590 5589 5588 5588 5587 5587 5587 5586 5586 5586 5585 5585 5584 5584 5584 5584 5583 5582 5582 5582 5581 5581 5580
5581 5581 5583 5586 5585 5584 5585 5584 5585 5585 5585 5585 5585 5586 5586 5585 5584 5583 5582 5582 5581 5581 5580 5580 5579 5578 5578 5577 5577 5577 5576 5575 5575 5574 5574 5573 5573 5572 5571 5571 5570 5570 5569 5568
5570 5570 5572 5574 5574 5573 5575 5575 5574 5573 5574 5574 5574 5575 5575 5574 5574 5573 5572 5572 5571 5571 5570 5570 5569 5569 5568 5568 5567 5566 5566 5565 5564 5564 5563 5562 5562 5561 5560 5559 5558 5558 5557 5556
5560 5560 5564 5562 5562 5563 5562 5562 5562 5562 5562 5563 5563 5563 5563 5563 5563 5563 5562 5561 5561 5560 5560 5559 5559 5558 5558 5557 5557 5556 5555 5555 5554 5553 5552 5551 5550 5549 5548 5547 5546 5545 5544 5544
5549 5551 5551 5551 5551 5551 5550 5551 5551 5551 5551 5552 5552 5552 5552 5552 5552 5552 5551 5551 5550 5550 5549 5549 5548 5547 5547 5546 5546 5545 5544 5543 5543 5542 5540 5539 5538 5537 5536 5535 5534 5533 5532 5531
5537 5539 5539 5539 5539 5539 5539 5539 5539 5540 5540 5540 5541 5541 5541 5541 5541 5540 5540 5540 5539 5539 5538 5538 5537 5536 5535 5535 5534 5534 5533 5532 5530 5529 5528 5527 5525 5524 5523 5522 5521 5520 5519 5518
5527 5528 5528 5529 5529 5528 5528 5528 5528 5528 5529 5529 5529 5530 5529 5529 5529 5529 5528 5528 5528 5527 5527 5527 5526 5525 5524 5523 5523 5522 5521 5520 5518 5517 5515 5514 5513 5511 5510 5509 5508 5507 5506 5504
5516 5517 5517 5518 5518 5517 5517 5517 5517 5517 5518 5518 5518 5518 5518 5518 5518 5517 5517 5517 5517 5516 5516 5515 5515 5514 5513 5512 5511 5510 5509 5508 5506 5505 5503 5501 5500 5499 5497 5496 5495 5493 5492 5491
5505 5506 5506 5506 5506 5506 5506 5506 5506 5506 5506 5506 5506 5506 5506 5507 5506 5506 5506 5506 5505 5505 5504 5504 5503 5502 5501 5501 5499 5498 5497 5495 5493 5492 5490 5489 5487 5486 5485 5483 5481 5480 5478 5476
5495 5495 5496 5496 5496 5495 5495 5495 5495 5495 5495 5495 5495 5495 5495 5496 5496 5495 5495 5495 5494 5494 5493 5493 5492 5491 5490 5489 5487 5486 5484 5483 5481 5479 5478 5476 5475 5473 5472 5470 5469 5467 5465 5463
5486 5486 5487 5487 5486 5486 5485 5485 5485 5485 5484 5484 5484 5484 5484 5484 5485 5484 5484 5483 5483 5483 5482 5481 5480 5479 5478 5477 5475 5474 5472 5470 5469 5467 5466 5464 5462 5461 5459 5457 5455 5453 5452 5450
5478 5478 5478 5478 5477 5476 5476 5475 5475 5475 5474 5474 5473 5473 5473 5473 5473 5473 5473 5473 5472 5471 5471 5470 5469 5467 5466 5465 5463 5461 5460 5458 5456 5455 5453 5452 5450 5448 5446 5444 5443 5441 5439 5437
5469 5469 5469 5469 5468 5467 5467 5466 5465 5465 5464 5464 5463 5462 5462 5462 5462 5462 5462 5461 5461 5460 5459 5458 5457 5455 5454 5453 5451 5449 5448 5446 5444 5442 5441 5439 5437 5436 5434 5432 5430 5428 5425 5423
5462 5461 5461 5460 5460 5459 5458 5457 5456 5455 5455 5454 5453 5452 5452 5452 5451 5451 5450 5449 5449 5448 5447 5446 5445 5444 5442 5441 5439 5437 5436 5434 5432 5430 5429 5427 5425 5423 5421 5419 5417 5415 5413 5410
5454 5453 5453 5452 5451 5451 5450 5449 5448 5446 5445 5444 5443 5443 5442 5441 5440 5440 5439 5438 5438 5437 5436 5434 5433 5432 5430 5429 5427 5425 5424 5422 5420 5418 5417 5415 5413 5411 5409 5407 5405 5403 5401 5399
5446 5446 5445 5444 5443 5443 5441 5440 5439 5438 5436 5435 5434 5433 5432 5431 5430 5429 5428 5427 5426 5425 5424 5423 5422 5420 5419 5417 5415 5413 5411 5410 5408 5406 5404 5403 5401 5399 5397 5395 5393 5391 5389 5387
5439 5438 5437 5437 5436 5434 5433 5432 5430 5429 5427 5426 5424 5423 5422 5421 5419 5418 5417 5416 5415 5414 5412 5411 5410 5408 5407 5404 5403 5401 5399 5398 5396 5394 5393 5391 5389 5387 5385 5383 5382 5380 5378 5376
5432 5431 5430 5429 5428 5426 5425 5424 5422 5421 5419 5417 5416 5414 5413 5411 5410 5408 5407 5406 5404 5403 5401 5400 5398 5396 5394 5393 5391 5389 5388 5386 5384 5383 5381 5380 5378 5376 5375 5373 5371 5369 5367 5365
5424 5423 5422 5421 5420 5419 5417 5416 5414 5413 5411 5409 5407 5405 5404 5402 5400 5398 5397 5395 5394 5392 5390 5388 5387 5385 5383 5381 5380 5378 5376 5375 5373 5372 5370 5369 5368 5366 5364 5363 5361 5359 5357 5355
5418 5416 5415 5414 5413 5411 5410 5408 5406 5405 5403 5401 5399 5397 5394 5392 5390 5388 5387 5385 5383 5381 5379 5377 5376 5374 5372 5371 5369 5367 5366 5364 5363 5361 5360 5359 5358 5356 5355 5353 5351 5350 5348 5346
5411 5409 5408 5406 5405 5403 5402 5400 5398 5396 5394 5392 5390 5387 5385 5383 5381 5378 5376 5374 5372 5371 5369 5367 5365 5363 5361 5360 5358 5357 5355 5354 5353 5352 5351 5349 5348 5347 5345 5344 5342 5340 5339 5337
5403 5402 5400 5398 5397 5395 5394 5392 5390 5388 5386 5383 5381 5378 5376 5373 5371 5369 5367 5365 5362 5360 5359 5357 5355 5353 5351 5350 5348 5347 5345 5344 5343 5342 5341 5340 5339 5338 5337 5335 5334 5332 5330 5329
5396 5394 5392 5391 5389 5387 5385 5383 5381 5379 5377 5375 5372 5369 5367 5364 5362 5360 5357 5355 5353 5351 5349 5347 5345 5343 5342 5340 5338 5337 5336 5334 5333 5333 5332 5331 5330 5329 5328 5327 5326 5324 5323 5322